Miscellaneous Local Product
Issued by NWS North Platte, NE

Home | Current Version | Previous Version | Graphics & Text | Print | Product List | Glossary On
Versions: 1 2 3 4 5 6 7 8 9 10 11 12 13 14 15 16 17 18 19 20 21 22 23 24 25 26 27 28 29 30 31 32 33 34 35 36 37 38 39 40 41 42 43 44 45 46 47 48 49 50
338
AXUS43 KLBF 270710
MISLBF


WESTERN AND NORTH CENTRAL NEBRASKA HOURLY WEATHER ROUNDUP
NATIONAL WEATHER SERVICE NORTH PLATTE NE
200 AM CDT WED JUL 27 2016

NOTE: "FAIR" INDICATES FEW OR NO CLOUDS BELOW 12,000 FEET WITH NO
SIGNIFICANT WEATHER AND/OR OBSTRUCTIONS TO VISIBILITY.

NOTE: STATIONS NOT REPORTING VARIABLES SUCH AS SKY/WEATHER OR
PRESSURE ARE PROVIDED BY RAWS AND APRS NETWORKS AND ARE NOT UNDER
NATIONAL WEATHER SERVICE QUALITY CONTROL.

...OBSERVATIONS IN AND NEAR THE EASTERN PANHANDLE OF NEBRASKA...

CITY           SKY/WX    TMP DP  RH WIND       PRES   REMARKS
PINE RIDGE     CLOUDY    62  59  90 NW3       30.08R
CHADRON        CLEAR     63  59  87 CALM      30.06S
ALLIANCE       PTCLDY    63  56  78 SE6       30.09R
SIDNEY         CLOUDY    71  49  45 S8        30.11F
CRESCENT LAKE    N/A     64  55  73 E7G20       N/A
$$

...OBSERVATIONS IN NORTHERN NEBRASKA AND FAR SOUTHERN SOUTH DAKOTA...

CITY           SKY/WX    TMP DP  RH WIND       PRES   REMARKS
WINNER         FAIR      71  58  63 W12       29.97R
VALENTINE      CLOUDY    65  59  81 MISG      30.01R
THEDFORD       CLOUDY    64  61  90 SE6       30.09S
AINSWORTH      CLOUDY    62  61  98 E17G24    30.01R
O`NEILL        TSTM      65  62  90 N21       30.12F
ORD            RAIN      64  60  87 NE22G31   30.07F
BROKEN BOW     CLOUDY    63  60  90 NE10G20   30.08F
VALENTINE NWR    N/A     63  59  86 E10G31      N/A
BUTTE            N/A     66  60  82 S10G20      N/A
HALSEY           N/A     62  58  88 CALM        N/A
EWING            N/A     67  65  93 N7          N/A
$$

...OBSERVATIONS IN SOUTHWEST NEBRASKA AND FAR NORTHEAST COLORADO...

CITY           SKY/WX    TMP DP  RH WIND       PRES   REMARKS
WRAY           FAIR      70  55  60 SW5       30.09R
HOLYOKE        FAIR      66  61  82 CALM      30.10S
IMPERIAL       PTCLDY    67  59  75 NE13      30.11R
OGALLALA       MOCLDY    66  59  77 E16       30.09R
NORTH PLATTE   MOCLDY    63  59  87 E12       30.13R
MCCOOK         LGT RAIN  65  59  81 NE28G41   30.11R
LEXINGTON      CLOUDY    63  61  93 E16       30.15F
GOTHENBURG       N/A     62  58  87 E8          N/A
CALLAWAY         N/A     62  60  95 E8          N/A
$$

...OBSERVATIONS IN CENTRAL LINCOLN COUNTY AREA...

CITY           SKY/WX    TMP DP  RH WIND       PRES   REMARKS
N.P. AIRPORT   MOCLDY    63  59  87 E12       30.13R
N.P. DOWNTOWN    N/A     64  59  85 E5G12       N/A
N.P. SOUTHEAST   N/A     64  59  85 CALM        N/A
N.P. HILLCREST   N/A     63  60  90 SE10        N/A
$$

...SOME OBSERVATIONS FROM AROUND THE REGION...

CITY           SKY/WX    TMP DP  RH WIND       PRES   REMARKS
DENVER         PTCLDY    69  40  34 W7        30.15R
LARAMIE        CLOUDY    56  36  47 SE8       30.29S
CHEYENNE       CLEAR     60  46  59 NW6       30.21F
SCOTTSBLUFF    CLOUDY    68  56  65 N8        30.12R THUNDER
RAPID CITY     PTCLDY    65  57  75 N10       30.09S
BISMARCK       CLOUDY    63  61  93 N6        30.05R
PIERRE         MOCLDY    67  63  87 NE5       29.99R
SIOUX FALLS    CLOUDY    74  64  71 S13       29.96F
OMAHA          PTCLDY    74  66  76 SE7       30.01R
GRAND ISLAND   LGT RAIN  70  60  70 NW26G45   30.14R
KANSAS CITY    CLEAR     74  66  76 E8        29.99F
WICHITA        PTCLDY    77  72  84 CALM      29.98F
OKLAHOMA CITY  MOCLDY    76  74  93 SW3       29.96F
DALLAS         MOCLDY    82  72  71 SE7       29.91S
AMARILLO       CLEAR     69  63  81 SE7       30.09F
DODGE CITY     CLEAR     71  66  84 SE7       30.03F
HAYS           CLOUDY    73  64  73 E6        30.02R
GOODLAND       PTCLDY    71  53  52 S10       30.06R
$$




USA.gov is the U.S. government's official web portal to all federal, state and local government web resources and services.